Regional Weather Roundup
Issued by NWS

Home | Current Version | Previous Version | Text Only | Print | Product List | Glossary Off
Versions: 1 2 3 4 5 6 7 8 9 10 11 12 13 14 15 16 17 18 19 20 21 22 23 24 25 26 27 28 29 30 31 32 33 34 35 36 37 38 39 40 41 42 43 44 45 46 47 48 49 50

000
ASUS45 KBOU 191707
RWRCO

WEATHER ROUNDUP FOR COLORADO
NATIONAL WEATHER SERVICE DENVER/BOULDER CO
1100 AM MDT TUE AUG 19 2014

NOTE: "FAIR" INDICATES FEW OR NO CLOUDS BELOW 12000 FEET WITH NO
SIGNIFICANT WEATHER AND/OR OBSTRUCTIONS TO VISIBILITY.

COZ001>005-013-030-031-191800-
...NORTHWEST COLORADO...

CITY           SKY/WX    TMP DP  RH WIND       PRES   REMARKS
CRAIG          CLOUDY    73  45  36 NE6       30.13S
HAYDEN         CLOUDY    64  45  48 E6        30.15F
MEEKER         LGT RAIN  65  53  65 S5        30.16R
MOUNT WERNER   NOT AVBL
STEAMBOAT SPGS CLOUDY    63  46  54 CALM      30.17F
WALDEN         CLOUDY    64  36  34 SW9       30.23S
$$

COZ006>008-011-191800-
...WEST CENTRAL VALLEYS...

CITY           SKY/WX    TMP DP  RH WIND       PRES   REMARKS
GRAND JUNCTION LGT RAIN  65  59  81 SW10      30.05R
MONTROSE       CLOUDY    74  49  41 NW6       30.09F
EAGLE          CLOUDY    64  43  45 CALM      30.17F
RIFLE          CLOUDY    69  43  38 W12       30.08S
DELTA          CLOUDY    77  47  34 SW3       30.05S
NUCLA          CLOUDY    72  46  40 CALM      30.14S
$$

COZ017>023-064>068-191800-
...SOUTHWEST COLORADO...

CITY           SKY/WX    TMP DP  RH WIND       PRES   REMARKS
DURANGO        PTSUNNY   72  45  37 CALM      30.15F
CORTEZ         SUNNY     78  50  37 S8        30.10F
PAGOSA SPRINGS PTSUNNY   72  38  29 CALM      30.22F
TELLURIDE      CLOUDY    63  46  55 CALM      30.30F
WOLF CREEK PAS NOT AVBL
$$

COZ009-010-012-014-032>034-037-058>063-191800-
...CENTRAL COLORADO...

CITY           SKY/WX    TMP DP  RH WIND       PRES   REMARKS
ASPEN          CLOUDY    64  43  46 SW5       30.21F
BUENA VISTA    PTSUNNY   73  36  25 NW7G16    30.20F
COPPER MTN     CLOUDY    59  36  41 SW6       30.53R
BERTHOUD PASS  FAIR      48  46  93 NE3       30.56F
COTTONWOOD PAS PTSUNNY   68  34  28 W3        30.35F
GUNNISON       PTSUNNY   66  43  42 W3        30.24S
KREMMLING      PTSUNNY   63  34  34 CALM      30.22F
LEADVILLE      CLOUDY    60  35  39 CALM      30.37S
MONARCH PASS   PTSUNNY   54  36  50 W14       30.61S
SALIDA         PTSUNNY   74  40  29 N8        30.25F
SUNLIGHT       CLOUDY    54  43  66 CALM      30.44S
WILKERSON PASS NOT AVBL
$$

COZ069>075-191800-
...SAN LUIS VALLEY/SANGRE DE CRISTO MOUNTAINS...

CITY           SKY/WX    TMP DP  RH WIND       PRES   REMARKS
ALAMOSA        SUNNY     71  42  35 VRB5      30.20F
LA VETA PASS   MOSUNNY   64  37  36 SW8G20    30.38S
SAGUACHE       MOSUNNY   68  41  37 SW5       30.23F
$$

COZ035-036-038>040-191800-
...NORTHERN COLORADO FRONT RANGE...

CITY           SKY/WX    TMP DP  RH WIND       PRES   REMARKS
DENVER INTL AP PTSUNNY   77  46  33 SE3       29.99F
DMNS CITY PARK   N/A     82  44  26 S3        29.97F
AURORA         PTSUNNY   80  41  24 E1        30.01F
FRONT RANGE AP NOT AVBL
ERIE MUNI ARPT SUNNY     82  45  27 SE6       29.96S
BOULDER MUN AP SUNNY     79  52  38 CALM      29.97S
CENTENNIAL     PTSUNNY   82  38  20 CALM      30.02S
BROOMFIELD     PTSUNNY   81  46  30 SE8       30.07R
FORT COLLINS   MOSUNNY   77  52  41 SE7       29.97S
LONGMONT       MOSUNNY   80  55  41 E6        29.97F
$$

COZ041-046-047-076>085-087-088-191800-
...PIKES PEAK/PALMER DIVIDE AND SOUTHERN FOOTHILLS...

CITY           SKY/WX    TMP DP  RH WIND       PRES   REMARKS
COLO. SPRINGS  PTSUNNY   76  48  37 E6        30.06F
A. F. ACADEMY  MOSUNNY   78  44  29 VRB2      30.07F
ELLICOTT       MOSUNNY   77  46  33 SE3       30.04F
FALCON         MOSUNNY   79  43  28 CALM      30.11F
FORT CARSON    MOSUNNY   77  50  38 N1        30.04S
LIMON          MOSUNNY   84  43  23 W3        29.99F
MONUMENT HILL  MOSUNNY   77  39  25 CALM      30.11F
TRINIDAD       SUNNY     85  46  25 NE6       30.04F
$$

COZ042>045-048>051-090-091-191800-
...NORTHEAST COLORADO...

CITY           SKY/WX    TMP DP  RH WIND       PRES   REMARKS
GREELEY ARPT   SUNNY     75  52  43 CALM      29.96F
AKRON          MOSUNNY   82  51  34 SW8       29.96S
BURLINGTON     MOSUNNY   80  54  40 VRB3      29.93F
WRAY             N/A     81  54  38 CALM      29.91S
STERLING       MOSUNNY   81  61  50 CALM      29.92S
HOLYOKE        NOT AVBL
FORT MORGAN    MOSUNNY   78  52  39 SE6       29.95F
$$

COZ086-089-092>099-191800-
...SOUTHEAST COLORADO...

CITY           SKY/WX    TMP DP  RH WIND       PRES   REMARKS
PUEBLO         MOSUNNY   82  47  29 S6        29.95F
LA JUNTA       MOSUNNY   82  54  37 SW5       29.93F
LAMAR          MOSUNNY   86  49  27 W7        29.89F
SPRINGFIELD      N/A     89  50  26 SW12G23   29.95F
$$



USA.gov is the U.S. government's official web portal to all federal, state and local government web resources and services.